Location: Calessina
(41.8833°N, 12.3667°E)
Time: 10:27:11
(UTC+00:00)

Daily predictions for brighter satellites

Satellite Brightness Start Highest point End
(mag) Time Altitude Azimuth Time Altitude Azimuth Time Altitude Azimuth
COBE Rocket 4.2 17:34:02 10° N 17:39:06 79° WNW 17:44:13 10° SSW
Okean 1 Rocket 3.8 17:37:10 10° SSE 17:40:59 31° E 17:44:49 10° NNE
FREGAT/IRIS 4.4 17:40:35 10° ESE 17:42:05 14° ENE 17:43:36 10° NE
Cosmos 2333 Rocket 2.5 17:39:24 10° NNW 17:44:57 50° ENE 17:50:30 10° SE
HJ-1C 4.4 17:42:16 10° SE 17:45:09 27° ENE 17:48:03 10° NNE
Okean 2 Rocket 4.0 17:44:27 10° SSW 17:48:48 55° W 17:53:14 10° N
YAOGAN 6 3.2 17:46:05 10° S 17:49:41 62° W 17:53:21 10° NNW
Cosmos 2184 Rocket 4.0 17:43:58 10° N 17:50:12 70° E 17:56:28 10° SSE
Cosmos 2237 Rocket 3.4 17:47:33 10° N 17:52:10 24° NE 17:56:37 11° ESE
USA 116 4.2 17:48:21 10° N 17:52:16 62° WNW 17:55:43 10° SSW
CSL-04 Rocket 4.1 17:48:01 10° S 17:53:29 72° WSW 17:59:03 10° NNW
Cosmos 1441 Rocket 3.4 17:50:53 10° S 17:54:33 47° E 17:58:12 10° NNE
SL-8 R/B 4.4 17:51:35 10° W 17:56:16 52° NNW 18:00:58 10° ENE
Lacrosse 4 Rocket 4.3 17:55:31 10° WNW 17:57:53 15° WSW 18:00:16 10° SW
GP-B 3.1 17:53:59 10° N 17:58:23 57° E 18:02:44 10° S
Cosmos 1025 Rocket 2.9 17:56:23 10° N 18:00:40 85° E 18:04:55 10° S
SPOT 3 Rocket 4.4 18:00:47 10° SE 18:05:09 29° ENE 18:09:31 10° N
Meteor 2-15 Rocket 4.4 17:59:05 10° S 18:05:09 71° E 18:11:18 10° NNE
Meteor 2-15 4.5 17:59:14 10° S 18:05:22 87° E 18:11:33 10° N
Cosmos 1536 Rocket 3.8 18:01:18 10° NNW 18:05:37 71° W 18:09:54 10° S
Cosmos 1378 3.9 18:02:14 10° NNW 18:05:57 56° W 18:09:37 10° S
ATLAS 2AS CENTAUR R/B 2.9 18:01:07 10° NNW 18:08:49 73° NE 18:15:49 10° SE
NOSS 0 Rocket 4.2 18:03:50 10° NNW 18:09:50 48° ENE 18:15:28 12° SE
YAOGAN 1 3.9 18:06:07 10° S 18:10:14 43° W 18:14:23 10° NNW
Orbus 7S? 4.5 18:06:58 10° SSW 18:10:53 51° ESE 18:19:40 10° NE
CZ-4 R/B 3.5 18:07:47 10° SSW 18:11:09 28° W 18:14:36 10° NW
Cosmos 1610 Rocket 4.5 18:07:55 10° N 18:14:14 73° E 18:20:34 10° SSE
USA 186 2.8 18:12:44 17° ESE 18:14:37 29° ENE 18:17:38 10° N
Nadezhda 1 Rocket 3.9 18:09:34 10° S 18:15:38 81° E 18:21:44 10° N
Cosmos 2327 Rocket 4.5 18:12:18 10° N 18:18:35 87° E 18:24:42 10° S
ASTEX 1 3.5 18:14:04 10° NNE 18:18:50 50° E 18:23:33 10° SSE
Cosmos 1461 4.3 18:15:08 10° WSW 18:18:54 37° NW 18:22:37 10° NNE
Cosmos 1371 Rocket 4.3 18:14:53 10° S 18:19:51 43° ESE 18:24:53 10° NNE
Cosmos 1707 2.9 18:17:26 10° N 18:21:16 50° E 18:24:54 11° SSE
SL-16 R/B 3.8 18:18:51 10° N 18:22:36 18° NE 18:24:38 15° ENE
Okean 1-7 Rocket 4.2 18:23:07 10° N 18:27:12 34° ENE 18:29:16 23° SE
Cosmos 1295 Rocket 4.5 18:21:14 10° N 18:27:22 62° E 18:33:23 10° SSE
COSMOS 2455 3.9 18:21:53 10° NW 18:27:35 45° WSW 18:33:14 10° S
Cosmos 2219 Rocket 2.3 18:22:22 10° NNW 18:27:58 78° WSW 18:33:33 10° SSE
SJ-6B 3.3 18:26:49 20° SE 18:29:20 43° ENE 18:33:14 10° N
H-2A R/B 2.5 18:33:14 24° ESE 18:35:34 38° ENE 18:40:12 10° N
COSMOS 2428 3.1 18:30:12 10° NNW 18:35:50 66° WSW 18:41:27 10° S
Aureole 1 Rocket 4.2 18:32:09 10° NNW 18:36:51 44° W 18:40:29 10° S
MOS 1 4.3 18:32:13 10° SSE 18:37:55 89° WSW 18:43:40 10° NNW
ISS -3.6 18:35:36 10° SW 18:38:49 50° SE 18:39:18 45° ESE
SJ-11-01 4.2 18:36:11 10° SSE 18:40:55 78° ENE 18:45:41 10° N
Cosmos 1939 Rocket 4.3 18:39:57 10° SSW 18:43:31 36° W 18:47:06 10° NNW
Lacrosse 5 rocket 1.4 18:46:55 10° SSW 18:49:55 43° SSE 18:49:55 43° SSE
Cosmos 1190 Rocket 4.0 18:46:43 10° NNW 18:51:59 62° ENE 18:54:14 33° SE
Cosmos 2227 Rocket 2.2 18:47:37 10° S 18:53:06 57° ESE 18:58:40 10° NNE
Cosmos 2219 3.3 18:48:51 10° SSW 18:54:36 82° WNW 19:00:24 10° NNE
Cosmos 1544 Rocket 3.8 18:55:48 44° E 18:55:51 44° E 19:00:06 10° NNE
ARGOS 3.2 18:53:49 31° SE 18:56:14 58° ENE 19:01:31 10° N
Cosmos 1455 Rocket 3.1 18:54:39 33° SSE 18:56:24 55° E 19:00:45 10° NNE
DELTA 2 R/B (1) 3.8 18:54:20 10° WSW 18:59:46 52° SSE 19:01:14 41° ESE
Cosmos 2181 Rocket 3.9 18:53:39 10° S 18:59:49 71° E 19:06:09 10° NNE
Cosmos 2341 Rocket 3.9 18:54:27 10° N 19:00:44 89° ENE 19:06:45 11° S
CZ-2C R/B 4.2 18:58:26 10° N 19:02:49 60° WNW 19:07:10 10° SSW
Cosmos 2297 Rocket 2.0 18:58:13 10° SSW 19:03:50 74° ESE 19:09:29 10° NNE
Meteor 1-15 Rocket 4.3 18:58:09 10° SSW 19:03:53 81° W 19:09:47 10° N
Cosmos 389 Rocket 2.6 19:00:29 10° NNW 19:03:54 68° W 19:04:30 54° SSW
GEOS 3 Rocket 4.1 19:01:21 21° SSE 19:04:37 54° WSW 19:09:38 10° NW
Cosmos 2084 Rocket 3.4 19:01:13 10° SSW 19:05:40 75° ESE 19:07:32 34° NE
Cosmos 405 Rocket 3.0 19:11:15 18° SSW 19:13:50 61° W 19:17:31 10° N
Cosmos 1437 Rocket 3.9 19:12:12 10° N 19:14:27 31° NNE 19:14:27 31° NNE
NOSS 3-4 (A) 4.1 19:09:06 10° NW 19:16:10 67° WSW 19:20:46 26° SSE
NOSS 3-4 (C) 4.1 19:09:12 10° NW 19:16:17 68° WSW 19:20:50 26° SSE
Cosmos 614 Rocket 4.0 19:11:21 10° NNW 19:16:35 75° WSW 19:18:30 39° S
MetOp-A 4.1 19:16:20 54° ESE 19:16:59 58° ENE 19:22:14 10° N
Cosmos 2056 Rocket 3.8 19:13:18 10° SSW 19:18:41 70° WNW 19:24:07 10° NNE
Cosmos 2218 Rocket 3.9 19:12:45 10° N 19:19:10 75° E 19:21:36 40° SSE
Resurs 1-3 3.5 19:21:40 79° ENE 19:21:40 79° ENE 19:25:59 10° N
Cosmos 2366 rocket 3.9 19:16:15 10° N 19:22:38 75° E 19:24:45 44° SSE
Cosmos 407 Rocket 3.8 19:18:04 10° NNW 19:23:07 62° WSW 19:25:02 36° S
Cosmos 864 Rocket 4.4 19:19:41 10° N 19:25:57 76° E 19:27:42 49° SSE
Resurs 01 Rocket 1.9 19:29:23 58° NNE 19:29:23 58° NNE 19:33:05 10° N
Cosmos 2333 Rocket 4.3 19:24:24 10° NW 19:28:51 24° WSW 19:33:18 10° SSW
SL-08 RB Rocket 3.6 19:29:16 87° ENE 19:29:16 87° ENE 19:33:58 10° NNW
Meteor 1-4 Rocket 3.7 19:26:02 10° NNW 19:29:05 41° W 19:29:05 41° W
Meteor 1-24 Rocket 3.7 19:23:59 10° N 19:29:47 68° E 19:30:19 64° ESE
CZ-2C R/B 2.9 19:29:59 71° ESE 19:30:17 74° ENE 19:35:46 10° N
SL-8 Rocket 4.1 19:26:35 10° NNW 19:32:46 73° W 19:35:53 31° S
SL-24 R/B 4.3 19:34:07 69° NNE 19:34:07 69° NNE 19:38:28 10° N
ADEOS Rocket 3.6 19:28:30 10° N 19:35:54 80° WNW 19:43:40 10° SSW
Cosmos 2237 Rocket 2.7 19:31:00 10° NNW 19:36:34 55° WSW 19:38:27 38° SSW
Cosmos 1674 4.4 19:38:08 10° N 19:39:57 27° NNW 19:39:57 27° NNW
BREEZE-M DEB (TANK) 3.5 19:33:15 10° WNW 19:41:49 71° WSW 19:41:49 71° WSW
Spot 2 Rocket 4.1 19:45:59 45° NNE 19:45:59 45° NNE 19:49:39 10° N
Cosmos 1954 Rocket 4.0 19:39:46 10° NNW 19:44:49 79° WNW 19:44:49 79° WNW
Cosmos 1140 Rocket 3.9 19:42:28 10° NNW 19:47:32 56° WSW 19:47:56 55° SW
Meteor 2-5 Rocket 4.3 19:46:17 10° NNW 19:52:00 58° W 19:53:38 43° SSW
SL-16 R/B 2.5 20:01:43 10° NNW 20:06:31 64° NW 20:06:31 64° NW
H-2A R/B 3.8 20:13:51 22° WSW 20:15:07 24° W 20:19:09 10° NW
CZ-2C R/B 4.1 20:15:09 10° NNE 20:17:56 31° NNE 20:17:56 31° NNE
Cosmos 2227 Rocket 4.3 20:33:05 10° WSW 20:37:33 23° NW 20:42:03 10° N
Terra 4.5 20:49:57 14° N 20:49:57 14° N 20:50:37 10° N
